Location: Cueva de Ratón
(10.1013°N, 67.6606°W)
Time: 05:49:49
(UTC+00:00)

Cosmos 2056 Rocket - Pass Details

Date: 02 December 2023
Orbit: 741 x 798 km, 74.0° (Epoch: 03 March)

Event Time Altitude Azimuth Distance (km) Brightness Sun altitude
Rises 22:18:42 0° 181° (S) 3,227 7.1 -3.4°
Reaches altitude 10° 22:21:08 10° 176° (S) 2,310 6.2 -4.0°
Maximum altitude 22:26:11 49° 101° (ESE) 992 3.8 -5.2°
Drops below altitude 10° 22:31:19 10° 27° (NNE) 2,343 5.6 -6.3°
Sets 22:33:47 0° 22° (NNE) 3,278 6.4 -6.9°
